COSMOS 2251 DEB, 34563

Orbit data source: Space-Track

COSMOS 2251 DEB, 34563 is space debris in LEO originally from a launch on Wed, 16 Jun 1993 UTC launched from the Plesetsk Missile And Space Complex (PKMTR). The debris from Iridium 33, an American commercial communications satellite, has been tracked extensively since its accidental collision with the defunct Russian satellite Cosmos 2251 in 2009. This event, occurring at high speed in low Earth orbit (LEO), generated thousands of pieces of space debris, significantly increasing the risk of further collisions. The Iridium 33 debris cloud has impacted space traffic management and orbital debris mitigation strategies, making it a subject of ongoing study in space situational awareness.

Loading next visibility...
Identifier
34563, 1993-036UZ
Orbit
LEO
Country
Flag of CISCIS
Related business
Manufacturer
Unknown
Mission
Spacecraft
Bus & Motor
Unknown
Mass
Unknown
Launch date (UTC)
1993-06-16 (33 years ago)
Launch vehicle
Unknown
Launch site
Plesetsk Missile And Space Complex (PKMTR)
Object type
Payload
Rocket body
Debris
Shape & HBR
Unknown shape, 0.1 m
Radar Cross Section
Small (<0.1 m²)

Expand to show TLE details & history
Last TLE update: 18 hours ago

TLE from 18 hours ago
0 COSMOS 2251 DEB
1 34563U 93036UZ  26106.62135596  .00000806  00000-0  22879-3 0  9999
2 34563  74.0385 330.4585 0012470  37.0817 354.1145 14.46993717900034
Epoch: 2026-04-16T14:54Z
TLE epoch observation values (Epoch: 2026-04-16T14:54:45.154Z)
Latitude
29.91194°
Longitude
-88.57619°
Altitude
730.096 km
Speed
7.498 km/s
True Right ascension
22h 39m 30s
True Declination
29° 45' 47"
Sunlit
Object was in daylight at epoch
Visualization orbit readout
Latitude
Unknown
Longitude
Unknown
Altitude
Unknown
Speed
Unknown
Apparent Right ascension
Unknown
Apparent Declination
Unknown
Sunlit
N/A
Visualization observer readout
Local Sidereal Time
15:55:06
Azimuth
Unknown
Elevation
Unknown
Doppler factor
Unknown
Orbital elements
Apogee altitude
741.964 km
Perigee altitude
724.228 km
Semi-major axis
7,111.233 km
Eccentricity
0.00125
Inclination
74.0385°
RAAN
330.4585°
Arg. of periapsis
37.0817°
True anomaly
354.09982°
Mean anomaly
354.1145°
Eccentric anomaly
354.10716°
Mean motion
3.61931 °/min
Orbital period
99.47 mins
BSTAR
0.00022879
Loading maneuver chart data...
Computing Atmospheric mass density...

Documentation

Showing up to 5 results
|